Regional Weather Roundup
Issued by NWS

Home | Current Version | Previous Version | Text Only | Print | Product List | Glossary Off
Versions: 1 2 3 4 5 6 7 8 9 10 11 12 13 14 15 16 17 18 19 20 21 22 23 24 25 26 27 28 29 30 31 32 33 34 35 36 37 38 39 40 41 42 43 44 45 46 47 48 49 50

000
ASUS43 KLOT 262309
RWRIL

ILLINOIS REGIONAL WEATHER ROUNDUP
NATIONAL WEATHER SERVICE CHICAGO/ROMEOVILLE IL
600 PM CDT FRI MAY 26 2017

NOTE: "FAIR" INDICATES FEW OR NO CLOUDS BELOW 12,000 FEET WITH NO
SIGNIFICANT WEATHER AND/OR OBSTRUCTIONS TO VISIBILITY.

* THESE STATIONS ARE NOT UNDER NWS QUALITY CONTROL. THEY ALSO MAY NOT
  REPORT WEATHER SUCH AS PRECIPITATION OR FOG.

ILZ001-002-007-009-015-016-024-270000-
NORTHWEST ILLINOIS

CITY           SKY/WX    TMP DP  RH WIND       PRES   REMARKS
MOLINE         CLOUDY    69  61  75 NE8       29.77R
STERLING*      PTSUNNY   64  61  90 E14       29.79R
SAVANNA*       CLOUDY    66  60  81 NE7       29.80R
$$

ILZ003-004-008-010-011-017-018-270000-
NORTH CENTRAL ILLINOIS

CITY           SKY/WX    TMP DP  RH WIND       PRES   REMARKS
ROCKFORD       LGT RAIN  60  57  89 E12G20    29.82S FOG
FREEPORT*      PTSUNNY   60  57  89 NE8       29.83R
ROCHELLE*      CLOUDY    60  58  96 NE15G22   29.80S FOG
DE KALB*       LGT RAIN  58  57  96 NE15      29.81S
PERU*          CLOUDY    69  64  83 W5        29.77R
$$

ILZ005-006-012>014-019>023-270000-
NORTHEAST ILLINOIS

CITY           SKY/WX    TMP DP  RH WIND       PRES   REMARKS
CHICAGO-OHARE  RAIN      56  53  90 NE10      29.81R FOG
CHICAGO-MIDWAY LGT RAIN  60  56  86 N10       29.80S
AURORA         CLOUDY    61  59  93 NE14      29.80R FOG
LANSING*       LGT RAIN  61  61  99 E6        29.78F
JOLIET*        CLOUDY    65  62  90 E9G16     29.78R
WAUKEGAN       LGT RAIN  54  53  97 NE8       29.83S FOG
DUPAGE AIRPORT LGT RAIN  58  58 100 NE12      29.80R FOG
KANKAKEE*      CLOUDY    65  64  96 CALM      29.76F
WHEELING       RAIN      54  54 100 NE7       29.84R FOG
MORRIS*        CLOUDY    66  63  90 E3        29.76S
ROMEOVILLE*    LGT RAIN  62  61  96 NE9       29.79R
NORTHERLY ISL    N/A     54  51  90 MISG        N/A
$$

LMZ740>746-270000-
SOUTHERN LAKE MICHIGAN

STATION/POSITION SKY/WX   TEMP    WIND        PRES    VSBY  WAVE
                          AIR SEA DIR/SP/G                  HT/PER
                          (F)     (DEG/KT/KT) (MB)    (MI)  (FT/S)
SOUTHERN BUOY              49 48   20/  4/  6 1011.2          1
WILMETTE HARBOR            50 52                N/A           2/ 3
HARRISON CRIB              53      10/ 14/ 15   N/A
BURNHAM HARBOR             54     360/ 13/ 15   N/A
CALUMET HARBOR             56      40/  8/ 13 1008.6F
BURNS HARBOR               58      70/ 12/ 14 1009.5F
MICHIGAN CITY              58      50/ 18/ 18   N/A
MICHIGAN CITY 6N           55 53   60/ 10/ 12   N/A           1/ 3
ST. JOSEPH                 58 56   60/  6/ 10 1010.7          1/ 4
$$

ILZ025>027-034>036-040-047-049-050-058-095>099-270000-
WEST-CENTRAL ILLINOIS

CITY           SKY/WX    TMP DP  RH WIND       PRES   REMARKS
QUINCY         PTSUNNY   77  67  71 N8        29.76R
GALESBURG*     MOSUNNY   72  64  75 NW7       29.77R
MACOMB*        MOSUNNY   74  64  70 NW8       29.79R
JACKSONVILLE*  CLOUDY    79  66  64 W5        29.74S HX  81
PITTSFIELD*    CLOUDY    80  67  63 W3        29.76R HX  83
$$

ILZ028>032-037-038-041>044-048-051>054-059>061-270000-
CENTRAL ILLINOIS

CITY           SKY/WX    TMP DP  RH WIND       PRES   REMARKS
PONTIAC        PTSUNNY   69  69  98 SE9       29.75F
BLOOMINGTON    CLOUDY    68  64  87 NE7       29.77R
DECATUR        CLOUDY    79  65  62 SW15      29.74S HX  81
PEORIA         CLOUDY    72  67  84 NW3       29.75S
LACON*         PTSUNNY   70  65  85 CALM      29.75S
LINCOLN*       PTSUNNY   77  66  68 N6        29.74S
SPRINGFIELD    CLOUDY    82  67  60 SW7       29.73S HX  84
TAYLORVILLE    CLOUDY    76  65  67 SW14      29.75R
$$

ILZ033-039-045-046-055>057-062-063-270000-
EAST-CENTRAL ILLINOIS

CITY           SKY/WX    TMP DP  RH WIND       PRES   REMARKS
CHAMPAIGN      CLOUDY    74  67  78 SW8       29.74S
RANTOUL*       CLOUDY    72  68  87 N13       29.76R
MATTOON        CLOUDY    76  65  68 S15G22    29.76R
PARIS*         CLOUDY    76  65  70 S14       29.76F
$$

ILZ079-100>102-270000-
SOUTHWEST ILLINOIS

CITY           SKY/WX    TMP DP  RH WIND       PRES   REMARKS
ALTON          CLOUDY    75  66  73 S7        29.76
BELLEVILLE     CLOUDY    75  66  73 SW10      29.78R
CAHOKIA*       CLOUDY    78  65  63 S7        29.76R HX  80
SPARTA*        CLOUDY    74  66  75 SW13G18   29.79S
$$

ILZ064>066-069>071-074>076-080>082-084>086-088>090-092>094-270000-
SOUTH-CENTRAL ILLINOIS

CITY           SKY/WX    TMP DP  RH WIND       PRES   REMARKS
CARBONDALE     CLOUDY    74  67  78 S10       29.81R
CAIRO*         CLOUDY    73  68  82 SW9G17    29.82R HAZE
EFFINGHAM*     CLOUDY    76  65  69 S8        29.79S
MARION         CLOUDY    75  66  73 SW14G28   29.82R
MT. VERNON       N/A     76  66  71 SW15G21   29.80R
CENTRALIA*     CLOUDY    75  67  76 SW9G16    29.78S
SALEM*         CLOUDY    76  65  69 SW10      29.79R
METROPOLIS*    CLOUDY    77  66  67 SW10G23   29.83R
$$

ILZ067-068-072-073-078-083-087-091-270000-
SOUTHEAST ILLINOIS

CITY           SKY/WX    TMP DP  RH WIND       PRES   REMARKS
LAWRENCEVILLE  CLOUDY    79  62  56 S9        29.78F HX  80
FLORA*         CLOUDY    79  65  63 W13       29.79R HX  81
FAIRFIELD*     CLOUDY    77  66  68 SW8       29.79R
HARRISBURG*    CLOUDY    78  66  67 SW13      29.81R
ROBINSON*      CLOUDY    77  62  60 S7        29.78F
CARMI*         CLOUDY    80  63  55 SW23G29   29.79R HX  82
$$

ABBREVIATIONS USED IN REMARKS
   TC - TEMPERATURE IN CELSIUS
  WCI - WIND CHILL INDEX
   HX - HEAT INDEX
  VSB - VISIBILITY
$$




USA.gov is the U.S. government's official web portal to all federal, state and local government web resources and services.